Timestamp, Local Timestamp, ID, PM25, PM10, Co2, Temperature, Relative Humidity, Monitor ID, O3
2022-03-30T23:17:58Z,03/30/22 19:17,7868883,3.896,0.022,708,13.6,56.3,97,0.0
2022-03-30T23:18:58Z,03/30/22 19:18,7868893,3.6700000000000004,0.02,711,13.5,57.5,97,0.0
2022-03-30T23:19:58Z,03/30/22 19:19,7868903,4.34,0.022,706,13.4,58.7,97,0.0
2022-03-30T23:20:58Z,03/30/22 19:20,7868913,4.286,0.016,713,13.3,59.4,97,0.0
2022-03-30T23:21:58Z,03/30/22 19:21,7868923,4.023,0.012,719,13.3,60.1,97,0.0
2022-03-30T23:22:58Z,03/30/22 19:22,7868933,4.4719999999999995,0.016,718,13.2,60.6,97,1.0
2022-03-30T23:23:58Z,03/30/22 19:23,7868943,3.8979999999999997,0.02,707,13.2,61.3,97,6.0
2022-03-30T23:24:58Z,03/30/22 19:24,7868953,4.425,0.018,722,13.2,61.7,97,7.0
2022-03-30T23:25:58Z,03/30/22 19:25,7868963,4.032,0.018,720,13.2,62.0,97,8.0
2022-03-30T23:26:58Z,03/30/22 19:26,7868973,3.939,0.012,713,13.2,62.3,97,8.0
2022-03-30T23:27:58Z,03/30/22 19:27,7868983,4.083,0.012,720,13.2,62.7,97,11.0
2022-03-30T23:28:58Z,03/30/22 19:28,7868993,3.8049999999999997,0.02,708,13.1,62.9,97,8.0
2022-03-30T23:29:58Z,03/30/22 19:29,7869003,4.072,0.02,728,13.1,63.2,97,9.0
2022-03-30T23:30:58Z,03/30/22 19:30,7869013,3.8950000000000005,0.02,730,13.1,63.4,97,8.0
2022-03-30T23:31:58Z,03/30/22 19:31,7869023,3.944,0.028000000000000004,723,13.1,63.7,97,10.0
2022-03-30T23:32:58Z,03/30/22 19:32,7869033,3.883,0.014000000000000002,719,13.1,63.9,97,10.0
2022-03-30T23:33:58Z,03/30/22 19:33,7869043,3.832,0.02,729,13.1,64.1,97,8.0
2022-03-30T23:34:58Z,03/30/22 19:34,7869053,3.9259999999999997,0.016,723,13.1,64.3,97,10.0
2022-03-30T23:35:58Z,03/30/22 19:35,7869063,3.7909999999999995,0.022,721,13.0,64.7,97,13.0
2022-03-30T23:36:58Z,03/30/22 19:36,7869073,3.71,0.016,723,13.0,64.9,97,14.0
2022-03-30T23:37:58Z,03/30/22 19:37,7869083,3.7340000000000004,0.016,709,13.0,64.8,97,14.0
2022-03-30T23:38:58Z,03/30/22 19:38,7869093,3.9850000000000003,0.02,724,13.0,65.0,97,13.0
2022-03-30T23:39:58Z,03/30/22 19:39,7869103,3.908,0.022,715,13.0,65.2,97,16.0
2022-03-30T23:40:58Z,03/30/22 19:40,7869113,3.907,0.02,716,13.0,65.3,97,14.0
2022-03-30T23:41:58Z,03/30/22 19:41,7869123,4.08,0.024,715,13.0,65.6,97,15.0
2022-03-30T23:42:58Z,03/30/22 19:42,7869133,3.54,0.018,724,12.9,65.8,97,14.0
2022-03-30T23:43:58Z,03/30/22 19:43,7869143,4.193,0.028000000000000004,709,12.9,65.9,97,14.0
2022-03-30T23:44:58Z,03/30/22 19:44,7869153,4.0280000000000005,0.016,724,12.9,66.2,97,15.0
2022-03-30T23:45:58Z,03/30/22 19:45,7869163,3.8920000000000003,0.026000000000000002,726,12.9,66.3,97,15.0
2022-03-30T23:46:58Z,03/30/22 19:46,7869173,4.0009999999999994,0.01,715,12.9,66.6,97,17.0
2022-03-30T23:47:58Z,03/30/22 19:47,7869183,3.9659999999999997,0.012,714,12.9,66.6,97,15.0
2022-03-30T23:48:58Z,03/30/22 19:48,7869193,4.231,0.014000000000000002,716,12.9,66.8,97,16.0
2022-03-30T23:49:58Z,03/30/22 19:49,7869203,3.625,0.014000000000000002,717,12.9,67.0,97,15.0
2022-03-30T23:50:58Z,03/30/22 19:50,7869213,3.597,0.012,716,12.9,67.0,97,16.0
2022-03-30T23:51:58Z,03/30/22 19:51,7869223,3.755,0.01,721,12.9,67.2,97,18.0
2022-03-30T23:52:58Z,03/30/22 19:52,7869233,3.973,0.026000000000000002,710,12.9,67.3,97,16.0
2022-03-30T23:53:58Z,03/30/22 19:53,7869243,3.618,0.024,716,12.9,67.5,97,16.0
2022-03-30T23:54:58Z,03/30/22 19:54,7869253,4.093999999999999,0.016,725,12.9,67.6,97,16.0
2022-03-30T23:55:58Z,03/30/22 19:55,7869263,4.009,0.02,721,12.9,67.9,97,18.0
2022-03-30T23:56:58Z,03/30/22 19:56,7869273,3.915,0.018,723,12.8,67.8,97,18.0
2022-03-30T23:57:58Z,03/30/22 19:57,7869283,3.772,0.02,705,12.8,67.8,97,16.0
2022-03-30T23:58:58Z,03/30/22 19:58,7869293,3.973,0.026000000000000002,719,12.8,68.1,97,15.0
2022-03-30T23:59:58Z,03/30/22 19:59,7869303,3.621,0.024,731,12.8,68.2,97,15.0
2022-03-31T00:00:58Z,03/30/22 20:00,7869314,3.8609999999999998,0.024,719,12.8,68.3,97,18.0
2022-03-31T00:01:58Z,03/30/22 20:01,7869325,4.057,0.014000000000000002,719,12.8,68.4,97,16.0
2022-03-31T00:02:58Z,03/30/22 20:02,7869336,3.997,0.032,729,12.8,68.7,97,19.0
2022-03-31T00:03:58Z,03/30/22 20:03,7869347,3.5799999999999996,0.008,723,12.8,68.8,97,18.0
2022-03-31T00:04:58Z,03/30/22 20:04,7869358,4.178,0.022,714,12.8,68.9,97,18.0
2022-03-31T00:05:58Z,03/30/22 20:05,7869369,4.156000000000001,0.02,727,12.8,69.0,97,20.0
2022-03-31T00:06:58Z,03/30/22 20:06,7869380,3.4939999999999998,0.022,727,12.9,69.1,97,19.0
2022-03-31T00:07:58Z,03/30/22 20:07,7869391,3.908,0.016,721,12.9,69.3,97,20.0
2022-03-31T00:08:58Z,03/30/22 20:08,7869402,3.689,0.016,732,12.9,69.3,97,18.0
2022-03-31T00:09:58Z,03/30/22 20:09,7869413,3.7079999999999997,0.006,740,12.9,69.6,97,20.0
2022-03-31T00:10:58Z,03/30/22 20:10,7869424,3.979,0.026000000000000002,740,12.9,69.8,97,19.0
2022-03-31T00:11:58Z,03/30/22 20:11,7869435,3.647,0.016,736,12.9,69.8,97,18.0
2022-03-31T00:12:58Z,03/30/22 20:12,7869446,3.809,0.016,734,12.9,70.1,97,22.0
2022-03-31T00:13:58Z,03/30/22 20:13,7869457,3.9939999999999998,0.014000000000000002,743,12.9,70.2,97,22.0
2022-03-31T00:14:58Z,03/30/22 20:14,7869468,3.963,0.018,730,13.0,70.2,97,22.0
2022-03-31T00:15:58Z,03/30/22 20:15,7869479,4.014,0.006,728,13.0,70.2,97,17.0
2022-03-31T00:16:58Z,03/30/22 20:16,7869490,4.174,0.032,735,13.0,70.4,97,21.0
2022-03-31T00:17:58Z,03/30/22 20:17,7869501,3.9270000000000005,0.012,728,13.0,70.4,97,20.0
2022-03-31T00:18:58Z,03/30/22 20:18,7869512,4.014,0.024,737,13.0,70.5,97,20.0
2022-03-31T00:19:58Z,03/30/22 20:19,7869523,3.84,0.018,730,13.0,70.6,97,20.0
2022-03-31T00:20:58Z,03/30/22 20:20,7869534,4.3340000000000005,0.016,737,13.0,70.7,97,20.0
2022-03-31T00:21:58Z,03/30/22 20:21,7869545,3.8280000000000003,0.03,743,13.0,70.9,97,20.0
2022-03-31T00:22:58Z,03/30/22 20:22,7869556,3.9210000000000003,0.018,743,13.0,71.0,97,20.0
2022-03-31T00:23:58Z,03/30/22 20:23,7869567,4.112,0.016,744,13.1,71.0,97,19.0
2022-03-31T00:24:58Z,03/30/22 20:24,7869578,4.058,0.01,731,13.1,71.2,97,22.0
2022-03-31T00:25:58Z,03/30/22 20:25,7869589,3.8869999999999996,0.022,745,13.1,71.2,97,20.0
2022-03-31T00:26:58Z,03/30/22 20:26,7869600,4.181,0.01,745,13.1,71.2,97,20.0
2022-03-31T00:27:58Z,03/30/22 20:27,7869611,4.103,0.022,744,13.1,71.3,97,21.0
2022-03-31T00:28:58Z,03/30/22 20:28,7869622,4.213,0.008,736,13.1,71.4,97,20.0
2022-03-31T00:29:58Z,03/30/22 20:29,7869633,4.396,0.02,740,13.1,71.5,97,22.0
2022-03-31T00:30:58Z,03/30/22 20:30,7869644,4.005,0.018,744,13.1,71.6,97,23.0
2022-03-31T00:31:58Z,03/30/22 20:31,7869655,3.971,0.022,747,13.1,71.8,97,20.0
2022-03-31T00:32:58Z,03/30/22 20:32,7869666,4.224,0.018,749,13.1,71.8,97,19.0
2022-03-31T00:33:58Z,03/30/22 20:33,7869677,4.109,0.022,749,13.1,72.0,97,21.0
2022-03-31T00:34:58Z,03/30/22 20:34,7869688,3.8810000000000002,0.01,757,13.1,72.0,97,21.0
2022-03-31T00:35:58Z,03/30/22 20:35,7869699,3.9210000000000003,0.018,742,13.1,72.1,97,19.0
2022-03-31T00:36:58Z,03/30/22 20:36,7869710,3.8869999999999996,0.028000000000000004,740,13.1,72.2,97,21.0
2022-03-31T00:37:58Z,03/30/22 20:37,7869721,4.13,0.022,744,13.1,72.1,97,20.0
2022-03-31T00:38:58Z,03/30/22 20:38,7869732,3.8049999999999997,0.026000000000000002,744,13.2,72.3,97,20.0
2022-03-31T00:39:58Z,03/30/22 20:39,7869743,4.154,0.016,751,13.2,72.4,97,20.0
2022-03-31T00:40:58Z,03/30/22 20:40,7869754,3.658,0.026000000000000002,754,13.2,72.5,97,21.0
2022-03-31T00:41:58Z,03/30/22 20:41,7869765,4.034000000000001,0.016,746,13.2,72.5,97,20.0
2022-03-31T00:42:58Z,03/30/22 20:42,7869776,4.116,0.012,761,13.2,72.5,97,19.0
2022-03-31T00:43:58Z,03/30/22 20:43,7869787,4.039,0.014000000000000002,761,13.2,72.5,97,18.0
2022-03-31T00:44:58Z,03/30/22 20:44,7869798,4.107,0.018,758,13.2,72.5,97,18.0
2022-03-31T00:45:58Z,03/30/22 20:45,7869809,4.047,0.012,765,13.2,72.6,97,18.0
2022-03-31T00:46:58Z,03/30/22 20:46,7869820,3.7409999999999997,0.024,756,13.2,72.8,97,20.0
2022-03-31T00:47:58Z,03/30/22 20:47,7869831,4.432,0.014000000000000002,758,13.2,72.8,97,20.0
2022-03-31T00:48:58Z,03/30/22 20:48,7869842,4.095000000000001,0.03,746,13.2,72.9,97,21.0
2022-03-31T00:49:58Z,03/30/22 20:49,7869853,4.077,0.03,752,13.2,73.0,97,20.0
2022-03-31T00:50:58Z,03/30/22 20:50,7869864,4.1659999999999995,0.016,748,13.2,73.1,97,21.0
2022-03-31T00:51:58Z,03/30/22 20:51,7869875,4.218999999999999,0.014000000000000002,758,13.2,73.0,97,18.0
2022-03-31T00:52:58Z,03/30/22 20:52,7869886,3.595,0.02,752,13.2,72.9,97,17.0
2022-03-31T00:53:58Z,03/30/22 20:53,7869897,4.299,0.018,760,13.2,73.0,97,22.0
2022-03-31T00:54:58Z,03/30/22 20:54,7869908,4.364,0.016,753,13.2,73.3,97,21.0
2022-03-31T00:55:58Z,03/30/22 20:55,7869919,4.148,0.016,744,13.2,73.2,97,21.0
2022-03-31T00:56:58Z,03/30/22 20:56,7869930,4.024,0.032,757,13.2,73.3,97,20.0
2022-03-31T00:57:58Z,03/30/22 20:57,7869941,4.295,0.016,757,13.2,73.3,97,20.0
2022-03-31T00:58:58Z,03/30/22 20:58,7869952,3.8729999999999998,0.012,768,13.3,73.4,97,21.0
2022-03-31T00:59:58Z,03/30/22 20:59,7869963,4.189,0.014000000000000002,749,13.3,73.5,97,18.0
2022-03-31T01:00:58Z,03/30/22 21:00,7869974,4.0009999999999994,0.022,751,13.3,73.6,97,20.0
2022-03-31T01:01:58Z,03/30/22 21:01,7869985,3.582,0.018,755,13.3,73.6,97,20.0
2022-03-31T01:02:58Z,03/30/22 21:02,7869996,4.082,0.016,757,13.3,73.6,97,19.0
2022-03-31T01:03:58Z,03/30/22 21:03,7870007,4.037,0.004,751,13.3,73.8,97,21.0
2022-03-31T01:04:58Z,03/30/22 21:04,7870018,4.367,0.028000000000000004,766,13.3,73.9,97,23.0
2022-03-31T01:05:58Z,03/30/22 21:05,7870029,3.929,0.022,764,13.3,73.9,97,22.0
2022-03-31T01:06:58Z,03/30/22 21:06,7870040,4.093999999999999,0.01,753,13.4,74.0,97,22.0
2022-03-31T01:07:58Z,03/30/22 21:07,7870051,3.974,0.016,756,13.4,74.0,97,21.0
2022-03-31T01:08:58Z,03/30/22 21:08,7870062,3.7020000000000004,0.012,761,13.4,74.3,97,21.0
2022-03-31T01:09:58Z,03/30/22 21:09,7870073,3.687,0.018,742,13.4,74.3,97,21.0
2022-03-31T01:10:58Z,03/30/22 21:10,7870084,3.903,0.024,769,13.4,74.5,97,23.0
2022-03-31T01:11:58Z,03/30/22 21:11,7870095,4.034000000000001,0.016,759,13.4,74.5,97,22.0
2022-03-31T01:12:58Z,03/30/22 21:12,7870106,3.8659999999999997,0.016,748,13.5,74.5,97,23.0
2022-03-31T01:13:58Z,03/30/22 21:13,7870117,3.6189999999999998,0.032,756,13.5,74.6,97,21.0
2022-03-31T01:14:58Z,03/30/22 21:14,7870128,4.079,0.022,765,13.5,74.6,97,22.0
2022-03-31T01:15:58Z,03/30/22 21:15,7870139,3.447,0.018,757,13.5,74.5,97,22.0
2022-03-31T01:16:58Z,03/30/22 21:16,7870150,3.778,0.008,753,13.5,74.6,97,20.0
2022-03-31T01:17:58Z,03/30/22 21:17,7870161,3.7950000000000004,0.018,758,13.5,74.7,97,22.0
2022-03-31T01:18:58Z,03/30/22 21:18,7870172,3.56,0.022,762,13.6,74.8,97,23.0
2022-03-31T01:19:58Z,03/30/22 21:19,7870183,3.45,0.018,747,13.6,74.9,97,24.0
2022-03-31T01:20:58Z,03/30/22 21:20,7870194,3.567,0.006,764,13.6,75.0,97,23.0
2022-03-31T01:21:58Z,03/30/22 21:21,7870205,3.821,0.016,768,13.6,75.1,97,22.0
2022-03-31T01:22:58Z,03/30/22 21:22,7870216,3.679,0.02,769,13.6,75.2,97,23.0
2022-03-31T01:23:58Z,03/30/22 21:23,7870227,3.433,0.008,757,13.7,75.2,97,24.0
2022-03-31T01:24:58Z,03/30/22 21:24,7870238,3.307,0.02,775,13.7,75.2,97,25.0
2022-03-31T01:25:58Z,03/30/22 21:25,7870249,3.8020000000000005,0.014000000000000002,771,13.7,75.2,97,20.0
2022-03-31T01:26:58Z,03/30/22 21:26,7870260,3.215,0.016,782,13.7,75.3,97,23.0
2022-03-31T01:27:58Z,03/30/22 21:27,7870271,3.3920000000000003,0.016,778,13.7,75.5,97,26.0
2022-03-31T01:28:58Z,03/30/22 21:28,7870282,3.114,0.012,770,13.7,75.4,97,24.0
2022-03-31T01:29:58Z,03/30/22 21:29,7870293,3.25,0.014000000000000002,768,13.7,75.4,97,24.0
2022-03-31T01:30:58Z,03/30/22 21:30,7870304,3.0789999999999997,0.02,772,13.7,75.5,97,25.0
2022-03-31T01:31:58Z,03/30/22 21:31,7870315,3.1350000000000002,0.012,773,13.8,75.6,97,23.0
2022-03-31T01:32:58Z,03/30/22 21:32,7870326,3.28,0.014000000000000002,773,13.8,75.6,97,26.0
2022-03-31T01:33:58Z,03/30/22 21:33,7870337,2.6670000000000003,0.006,781,13.8,75.6,97,25.0
2022-03-31T01:34:58Z,03/30/22 21:34,7870348,3.1510000000000002,0.008,788,13.8,75.7,97,23.0
2022-03-31T01:35:58Z,03/30/22 21:35,7870359,3.081,0.024,786,13.9,75.7,97,27.0
2022-03-31T01:36:58Z,03/30/22 21:36,7870370,2.981,0.016,784,13.9,75.9,97,27.0
2022-03-31T01:37:58Z,03/30/22 21:37,7870381,2.761,0.008,782,13.9,75.9,97,26.0
2022-03-31T01:38:58Z,03/30/22 21:38,7870392,3.189,0.018,778,13.9,75.7,97,23.0
2022-03-31T01:39:58Z,03/30/22 21:39,7870403,3.032,0.01,797,14.0,75.9,97,25.0
2022-03-31T01:40:58Z,03/30/22 21:40,7870414,2.754,0.018,787,14.0,76.0,97,28.0
2022-03-31T01:41:58Z,03/30/22 21:41,7870425,2.7800000000000002,0.004,791,14.0,76.0,97,24.0
2022-03-31T01:42:58Z,03/30/22 21:42,7870436,2.769,0.012,785,14.0,75.9,97,25.0
2022-03-31T01:43:58Z,03/30/22 21:43,7870447,2.727,0.024,788,14.0,75.9,97,23.0
2022-03-31T01:44:58Z,03/30/22 21:44,7870458,2.898,0.012,782,14.1,75.9,97,22.0
2022-03-31T01:45:58Z,03/30/22 21:45,7870469,2.888,0.01,784,14.1,75.9,97,22.0
2022-03-31T01:46:58Z,03/30/22 21:46,7870480,2.539,0.002,803,14.1,75.9,97,26.0
2022-03-31T01:47:58Z,03/30/22 21:47,7870491,2.835,0.012,786,14.1,76.0,97,27.0
2022-03-31T01:48:58Z,03/30/22 21:48,7870502,2.654,0.01,778,14.1,76.2,97,28.0
2022-03-31T01:49:58Z,03/30/22 21:49,7870513,2.684,0.01,781,14.2,76.2,97,27.0
2022-03-31T01:50:58Z,03/30/22 21:50,7870524,2.939,0.01,783,14.2,76.2,97,28.0
2022-03-31T01:51:58Z,03/30/22 21:51,7870535,2.7489999999999997,0.008,791,14.2,76.2,97,26.0
2022-03-31T01:52:58Z,03/30/22 21:52,7870546,2.693,0.01,774,14.2,76.1,97,24.0
2022-03-31T01:53:58Z,03/30/22 21:53,7870557,2.712,0.018,785,14.2,76.1,97,26.0
2022-03-31T01:54:58Z,03/30/22 21:54,7870568,2.541,0.006,789,14.3,76.1,97,24.0
2022-03-31T01:55:58Z,03/30/22 21:55,7870579,2.4379999999999997,0.01,791,14.3,76.1,97,24.0
2022-03-31T01:56:58Z,03/30/22 21:56,7870590,2.623,0.008,779,14.3,76.2,97,24.0
2022-03-31T01:57:58Z,03/30/22 21:57,7870601,2.649,0.006,792,14.3,76.2,97,24.0
2022-03-31T01:58:59Z,03/30/22 21:58,7870612,2.856,0.006,788,14.3,76.3,97,26.0
2022-03-31T01:59:58Z,03/30/22 21:59,7870623,2.711,0.01,802,14.3,76.3,97,26.0
2022-03-31T02:00:58Z,03/30/22 22:00,7870634,2.462,0.016,792,14.3,76.2,97,27.0
2022-03-31T02:01:58Z,03/30/22 22:01,7870645,2.425,0.008,790,14.3,76.4,97,26.0
2022-03-31T02:02:58Z,03/30/22 22:02,7870656,2.5149999999999997,0.008,801,14.3,76.3,97,27.0
2022-03-31T02:03:58Z,03/30/22 22:03,7870667,2.2640000000000002,0.01,790,14.4,76.5,97,28.0
2022-03-31T02:04:59Z,03/30/22 22:04,7870678,2.633,0.004,794,14.4,76.4,97,25.0
2022-03-31T02:05:59Z,03/30/22 22:05,7870689,2.602,0.002,799,14.4,76.4,97,24.0
2022-03-31T12:58:26Z,03/31/22 08:58,7872655,0.072,0.0,2532,14.9,75.2,97,0.0
2022-03-31T12:59:26Z,03/31/22 08:59,7872661,0.06999999999999999,0.002,2134,15.2,73.3,97,0.0
2022-03-31T13:00:27Z,03/31/22 09:00,7872668,0.012,0.0,2545,15.6,74.2,97,0.0
2022-03-31T13:01:26Z,03/31/22 09:01,7872675,0.04,0.002,2509,16.1,72.1,97,0.0
2022-03-31T13:02:26Z,03/31/22 09:02,7872682,0.03,0.0,2602,16.6,71.1,97,0.0
2022-03-31T13:03:26Z,03/31/22 09:03,7872691,0.04,0.002,2505,17.1,71.0,97,0.0
2022-03-31T13:04:26Z,03/31/22 09:04,7872699,0.041999999999999996,0.0,2068,17.5,68.0,97,0.0
2022-03-31T13:05:27Z,03/31/22 09:05,7872706,0.08199999999999999,0.002,2192,17.9,67.2,97,0.0
2022-03-31T13:06:26Z,03/31/22 09:06,7872715,0.01,0.002,1950,18.2,65.5,97,0.0
2022-03-31T13:07:26Z,03/31/22 09:07,7872723,0.072,0.0,1915,18.6,64.3,97,0.0
2022-03-31T13:08:26Z,03/31/22 09:08,7872731,0.024,0.0,1823,18.9,62.8,97,0.0
2022-03-31T13:09:26Z,03/31/22 09:09,7872739,0.066,0.0,1642,19.2,61.4,97,0.0
2022-03-31T13:10:27Z,03/31/22 09:10,7872747,0.044,0.004,1507,19.4,60.0,97,0.0
2022-03-31T13:11:26Z,03/31/22 09:11,7872755,0.048,0.0,1502,19.7,58.8,97,0.0
2022-03-31T13:12:26Z,03/31/22 09:12,7872763,0.018,0.0,1443,19.8,57.6,97,0.0
2022-03-31T13:13:26Z,03/31/22 09:13,7872771,0.016,0.002,1427,20.1,56.5,97,0.0
2022-03-31T13:14:27Z,03/31/22 09:14,7872779,0.006,0.0,1405,20.3,55.4,97,0.0
2022-03-31T13:15:26Z,03/31/22 09:15,7872787,0.03,0.0,1430,20.4,54.5,97,0.0
2022-03-31T13:16:26Z,03/31/22 09:16,7872795,0.03,0.0,1404,20.5,53.6,97,0.0
2022-03-31T13:17:26Z,03/31/22 09:17,7872803,0.03,0.0,1395,20.6,52.7,97,0.0
2022-03-31T13:18:27Z,03/31/22 09:18,7872811,0.012,0.0,1375,20.8,52.0,97,0.0
2022-03-31T13:19:26Z,03/31/22 09:19,7872819,0.024,0.0,1377,20.9,51.2,97,0.0
2022-03-31T13:20:27Z,03/31/22 09:20,7872827,0.078,0.0,1355,21.0,50.6,97,0.0
2022-03-31T13:21:27Z,03/31/22 09:21,7872835,0.018,0.0,1333,21.0,49.8,97,0.0
2022-03-31T13:22:27Z,03/31/22 09:22,7872843,0.036,0.0,1357,21.1,49.2,97,0.0
2022-03-31T13:23:27Z,03/31/22 09:23,7872851,0.041999999999999996,0.0,1338,21.2,48.5,97,0.0
2022-03-31T13:24:27Z,03/31/22 09:24,7872859,0.022,0.002,1310,21.3,47.9,97,0.0
2022-03-31T13:25:27Z,03/31/22 09:25,7872867,0.036,0.0,1300,21.4,47.5,97,0.0
2022-03-31T13:26:27Z,03/31/22 09:26,7872875,0.036,0.0,1323,21.5,47.0,97,0.0
2022-03-31T13:27:27Z,03/31/22 09:27,7872883,0.024,0.0,1298,21.6,46.6,97,0.0
2022-03-31T13:28:27Z,03/31/22 09:28,7872891,0.024,0.0,1327,21.6,46.2,97,0.0
2022-03-31T13:29:27Z,03/31/22 09:29,7872899,0.024,0.0,1314,21.7,45.8,97,0.0
2022-03-31T13:30:27Z,03/31/22 09:30,7872907,0.041999999999999996,0.0,1327,21.8,45.4,97,0.0
2022-03-31T13:31:27Z,03/31/22 09:31,7872915,0.036,0.0,1315,21.9,44.9,97,0.0
2022-03-31T13:32:27Z,03/31/22 09:32,7872923,0.012,0.0,1305,22.0,44.5,97,0.0
2022-03-31T13:33:27Z,03/31/22 09:33,7872931,0.041999999999999996,0.0,1300,22.0,44.0,97,0.0
2022-03-31T13:34:27Z,03/31/22 09:34,7872939,0.03,0.0,1279,22.0,43.6,97,0.0
2022-03-31T13:35:27Z,03/31/22 09:35,7872947,0.024,0.0,1272,22.0,43.3,97,0.0
2022-03-31T13:36:27Z,03/31/22 09:36,7872955,0.018,0.0,1299,22.1,43.0,97,0.0
2022-03-31T13:37:27Z,03/31/22 09:37,7872963,0.012,0.0,1303,22.1,42.8,97,0.0
2022-03-31T13:38:27Z,03/31/22 09:38,7872971,0.036,0.0,1303,22.1,42.5,97,0.0
2022-03-31T13:39:27Z,03/31/22 09:39,7872979,0.08199999999999999,0.002,1316,22.1,42.3,97,0.0
2022-03-31T13:40:27Z,03/31/22 09:40,7872987,0.034,0.002,1321,22.1,42.1,97,0.0
2022-03-31T13:41:27Z,03/31/22 09:41,7872995,0.028000000000000004,0.002,1389,22.1,42.1,97,0.0
2022-03-31T13:42:27Z,03/31/22 09:42,7873003,0.048,0.0,1418,22.2,41.9,97,0.0
2022-03-31T13:43:27Z,03/31/22 09:43,7873011,0.054000000000000006,0.0,1449,22.2,41.8,97,0.0
2022-03-31T13:44:27Z,03/31/22 09:44,7873019,0.046,0.002,1558,22.3,42.0,97,0.0
2022-03-31T13:45:27Z,03/31/22 09:45,7873027,0.076,0.002,2237,22.4,42.2,97,0.0
2022-03-31T13:46:27Z,03/31/22 09:46,7873035,0.048,0.0,1959,22.5,42.0,97,0.0
2022-03-31T13:47:27Z,03/31/22 09:47,7873043,0.041999999999999996,0.0,1783,22.6,41.6,97,0.0
2022-03-31T13:48:27Z,03/31/22 09:48,7873051,0.018,0.0,1690,22.7,41.4,97,0.0
2022-03-31T13:49:27Z,03/31/22 09:49,7873059,0.041999999999999996,0.0,1655,22.7,41.1,97,0.0
2022-03-31T13:50:27Z,03/31/22 09:50,7873067,0.046,0.002,1577,22.8,40.7,97,0.0
2022-03-31T13:51:27Z,03/31/22 09:51,7873074,0.034,0.002,1539,22.9,40.5,97,0.0
2022-03-31T13:52:27Z,03/31/22 09:52,7873083,0.08399999999999999,0.0,1700,23.0,40.8,97,0.0
2022-03-31T13:53:27Z,03/31/22 09:53,7873091,0.062,0.004,1838,23.1,40.7,97,0.0
2022-03-31T13:54:27Z,03/31/22 09:54,7873098,0.054000000000000006,0.0,1972,23.2,40.5,97,0.0
2022-03-31T13:55:27Z,03/31/22 09:55,7873107,0.036,0.0,1919,23.3,40.3,97,0.0
2022-03-31T13:56:27Z,03/31/22 09:56,7873115,0.04,0.002,1850,23.3,40.1,97,0.0
2022-03-31T13:57:27Z,03/31/22 09:57,7873123,0.012,0.0,1817,23.4,39.9,97,0.0
2022-03-31T13:58:27Z,03/31/22 09:58,7873131,0.03,0.0,1853,23.4,39.7,97,0.0
2022-03-31T13:59:27Z,03/31/22 09:59,7873139,0.03,0.0,1983,23.5,39.8,97,0.0
2022-03-31T14:00:27Z,03/31/22 10:00,7873146,0.04,0.002,1955,23.6,39.7,97,0.0
2022-03-31T14:01:27Z,03/31/22 10:01,7873154,0.041999999999999996,0.0,1968,23.6,39.7,97,0.0
2022-03-31T14:02:27Z,03/31/22 10:02,7873162,0.147,0.0,2171,23.7,39.7,97,0.0
2022-03-31T14:03:27Z,03/31/22 10:03,7873170,0.041999999999999996,0.0,1936,23.8,39.2,97,0.0
2022-03-31T14:04:27Z,03/31/22 10:04,7873178,0.046,0.002,1776,23.8,38.9,97,0.0
2022-03-31T14:05:27Z,03/31/22 10:05,7873186,0.024,0.0,1781,23.8,38.8,97,0.0
2022-03-31T14:06:27Z,03/31/22 10:06,7873193,0.024,0.0,1760,23.8,38.5,97,0.0
2022-03-31T14:07:27Z,03/31/22 10:07,7873202,0.024,0.0,1783,23.9,38.7,97,0.0
2022-03-31T14:08:27Z,03/31/22 10:08,7873209,0.06,0.0,1817,23.9,38.5,97,0.0
2022-03-31T14:09:27Z,03/31/22 10:09,7873218,0.046,0.002,1790,23.9,38.4,97,0.0
2022-03-31T14:10:27Z,03/31/22 10:10,7873226,0.024,0.0,1767,23.9,38.2,97,0.0
2022-03-31T14:11:27Z,03/31/22 10:11,7873234,0.018,0.0,1793,23.9,37.9,97,0.0
2022-03-31T14:12:27Z,03/31/22 10:12,7873242,0.054000000000000006,0.0,1767,23.9,37.9,97,0.0
2022-03-31T14:13:27Z,03/31/22 10:13,7873250,0.041999999999999996,0.0,1761,23.9,37.8,97,0.0
2022-03-31T14:14:27Z,03/31/22 10:14,7873258,0.127,0.002,1794,23.9,37.9,97,0.0
2022-03-31T14:15:27Z,03/31/22 10:15,7873266,0.04,0.002,1812,24.0,37.7,97,0.0
2022-03-31T14:16:27Z,03/31/22 10:16,7873274,0.018,0.0,1804,24.0,37.6,97,0.0
2022-03-31T14:17:27Z,03/31/22 10:17,7873282,0.018,0.0,1801,24.0,37.4,97,0.0
2022-03-31T14:18:27Z,03/31/22 10:18,7873290,0.036,0.0,1804,24.0,37.4,97,0.0
2022-03-31T14:19:27Z,03/31/22 10:19,7873298,0.034,0.002,1820,24.0,37.4,97,0.0
2022-03-31T14:20:27Z,03/31/22 10:20,7873306,0.06,0.0,1841,24.0,37.3,97,0.0
2022-03-31T14:21:27Z,03/31/22 10:21,7873314,0.08399999999999999,0.0,1824,24.0,37.1,97,0.0
2022-03-31T14:22:27Z,03/31/22 10:22,7873322,0.054000000000000006,0.0,1773,24.1,37.0,97,0.0
2022-03-31T14:23:27Z,03/31/22 10:23,7873329,0.024,0.0,1767,24.0,36.9,97,0.0
2022-03-31T14:24:27Z,03/31/22 10:24,7873337,0.041999999999999996,0.0,1767,24.0,36.7,97,0.0
2022-03-31T14:25:27Z,03/31/22 10:25,7873345,0.03,0.0,1719,23.9,36.5,97,0.0
2022-03-31T14:26:27Z,03/31/22 10:26,7873353,0.054000000000000006,0.0,1703,23.9,36.4,97,0.0
2022-03-31T14:27:27Z,03/31/22 10:27,7873361,0.046,0.002,1663,23.8,36.4,97,0.0
2022-03-31T14:28:27Z,03/31/22 10:28,7873369,0.01,0.002,1694,23.8,36.4,97,0.0
2022-03-31T14:29:27Z,03/31/22 10:29,7873377,0.041999999999999996,0.0,1707,23.7,36.4,97,0.0
2022-03-31T14:30:27Z,03/31/22 10:30,7873385,0.046,0.002,1725,23.6,36.4,97,0.0
2022-03-31T14:31:27Z,03/31/22 10:31,7873393,0.09,0.0,1780,23.6,36.4,97,0.0
2022-03-31T14:32:27Z,03/31/22 10:32,7873401,0.066,0.0,1744,23.5,36.4,97,0.0
2022-03-31T14:33:27Z,03/31/22 10:33,7873409,0.048,0.0,1761,23.5,36.5,97,0.0
2022-03-31T14:34:27Z,03/31/22 10:34,7873417,0.04,0.002,1742,23.5,36.4,97,0.0
2022-03-31T14:35:45Z,03/31/22 10:35,7873426,0.041999999999999996,0.0,380,23.4,36.4,97,0.0
2022-03-31T14:37:58Z,03/31/22 10:37,7873443,0.076,0.002,402,23.4,36.9,97,0.0
2022-03-31T14:39:26Z,03/31/22 10:39,7873455,0.05600000000000001,0.004,398,23.5,36.8,97,0.0
2022-03-31T14:40:26Z,03/31/22 10:40,7873463,0.018,0.0,371,23.6,36.8,97,0.0
2022-03-31T14:41:26Z,03/31/22 10:41,7873470,0.028000000000000004,0.002,371,23.6,36.8,97,0.0
2022-03-31T14:42:26Z,03/31/22 10:42,7873479,0.024,0.0,378,23.7,36.8,97,0.0
2022-03-31T14:43:26Z,03/31/22 10:43,7873487,0.048,0.0,371,23.7,36.8,97,0.0
2022-03-31T14:44:26Z,03/31/22 10:44,7873495,0.018,0.0,443,23.8,36.8,97,0.0
2022-03-31T14:45:26Z,03/31/22 10:45,7873503,0.024,0.0,403,23.9,36.5,97,0.0
2022-03-31T14:49:52Z,03/31/22 10:49,7873526,0.078,0.0,134,23.8,35.0,97,0.0
2022-03-31T14:50:52Z,03/31/22 10:50,7873537,0.072,0.0,0,23.3,34.7,97,0.0
2022-03-31T14:52:20Z,03/31/22 10:52,7873549,0.1,0.002,302,22.1,34.5,97,11.0
2022-03-31T14:53:20Z,03/31/22 10:53,7873561,0.078,0.0,257,21.2,34.8,97,13.0
2022-03-31T14:54:20Z,03/31/22 10:54,7873572,0.078,0.0,242,20.3,35.0,97,13.0
2022-03-31T14:55:20Z,03/31/22 10:55,7873583,0.09,0.0,219,19.4,35.6,97,18.0
2022-03-31T14:56:20Z,03/31/22 10:56,7873594,0.08399999999999999,0.0,210,18.7,35.8,97,17.0
2022-03-31T14:57:20Z,03/31/22 10:57,7873605,0.06,0.0,205,18.0,36.4,97,19.0
2022-03-31T14:58:20Z,03/31/22 10:58,7873615,0.041999999999999996,0.0,189,17.2,37.1,97,22.0
2022-03-31T14:59:20Z,03/31/22 10:59,7873627,0.04,0.002,192,16.5,37.8,97,21.0
2022-03-31T15:00:20Z,03/31/22 11:00,7873638,0.054000000000000006,0.0,169,15.7,38.5,97,24.0
2022-03-31T15:01:20Z,03/31/22 11:01,7873648,0.06,0.0,167,15.0,39.4,97,24.0